Theta_e
301 300 298 297 296 295 296 296 296 296 296 296 297 296 295 295 294 294 295 295 295 294 293 292 291 290 290 291 291 292 291 291 290 291 291 291 290 290 290 290 289 289 288 287 287 288 286 285 285 285 285 285 284 285 285 284 283 283 285 284 282 281 282 281 282 281 280 279 279 280 281 282 285 284 282 282 283 283 283 282 283 283 283 284 284
298 298 298 293 293 292 293 294 294 294 295 295 296 296 295 294 294 294 294 294 295 294 293 293 293 292 292 292 292 292 291 291 290 290 291 291 290 289 290 289 289 288 288 287 287 287 286 285 285 285 285 284 284 284 283 285 284 283 284 281 281 281 280 281 282 279 279 278 278 279 279 281 284 281 282 282 282 283 283 282 283 283 283 283 284
297 298 298 294 292 291 292 293 294 296 296 295 296 295 294 293 294 294 294 294 294 294 294 293 293 293 293 292 293 291 291 291 290 290 290 289 289 289 289 289 289 288 288 288 287 287 286 286 285 285 284 285 284 283 284 283 283 283 282 282 281 281 282 283 281 279 278 279 279 278 276 277 281 279 279 281 282 283 282 281 283 283 283 282 283
297 298 298 293 291 292 291 291 293 293 293 292 293 294 293 293 293 293 293 294 294 294 294 294 293 292 290 289 289 289 288 289 288 288 288 288 288 288 289 289 289 288 288 287 287 287 286 286 285 284 284 285 284 284 283 283 282 282 281 282 282 280 278 280 282 280 279 278 277 277 276 277 277 276 277 280 280 281 281 281 282 282 281 282 283
297 298 297 294 288 290 291 292 291 292 293 293 293 293 294 293 293 293 293 293 294 294 294 293 291 289 288 288 288 287 287 287 286 285 288 289 289 287 288 288 288 288 287 287 287 286 285 285 285 284 284 284 284 283 283 283 283 283 282 282 280 280 279 278 281 281 280 281 278 277 276 277 276 276 277 277 278 279 280 281 284 282 280 283 281
297 297 297 296 292 290 289 288 289 291 292 293 294 294 293 293 293 293 293 293 293 293 293 292 292 290 289 288 287 287 286 286 287 288 287 287 289 289 288 288 288 287 287 287 287 286 285 285 284 284 284 284 284 283 283 282 282 282 282 282 280 280 280 279 279 282 281 282 279 277 278 276 275 276 276 275 277 279 279 280 281 280 280 280 281
295 295 295 295 294 289 289 289 290 290 292 291 291 291 291 292 292 292 292 292 293 292 292 292 291 290 290 290 290 289 289 289 290 289 289 288 289 288 288 287 287 287 286 286 286 286 285 284 284 284 284 284 284 282 282 282 282 282 282 281 281 282 281 278 279 279 279 279 279 279 281 280 278 276 274 276 274 276 277 278 278 279 279 280 280
295 295 294 294 292 292 292 291 290 292 290 288 290 290 289 290 291 291 292 292 292 292 292 292 291 290 290 290 290 290 290 290 289 289 289 288 288 288 287 287 287 287 286 286 286 285 285 284 284 283 283 283 283 282 282 281 282 282 282 281 281 282 280 280 279 279 279 279 280 279 279 278 277 277 277 276 275 273 275 277 278 278 278 279 280
294 294 295 292 291 291 291 291 290 287 288 289 290 290 290 289 290 290 291 291 291 291 292 291 292 291 291 290 290 291 290 289 288 288 288 288 287 287 287 286 286 286 286 285 285 285 285 284 283 283 283 283 284 282 281 282 282 282 281 281 281 281 280 280 280 279 278 279 279 277 278 277 277 276 277 277 276 274 274 275 275 277 278 280 279
295 294 293 292 291 290 290 289 286 288 287 288 287 287 288 288 288 288 289 290 290 290 291 291 291 291 290 290 290 290 289 286 287 286 286 286 287 286 286 286 286 286 285 285 285 285 285 284 283 283 283 283 283 282 281 281 281 282 282 281 281 281 280 280 280 279 279 279 279 279 277 276 276 276 276 276 276 276 275 274 275 275 275 276 278
296 292 290 289 287 287 286 287 285 284 284 286 286 287 287 287 288 288 288 289 289 290 290 290 290 290 290 290 290 289 288 286 285 285 286 285 286 286 286 286 286 286 285 285 285 284 284 284 283 283 283 283 283 281 281 282 282 282 281 281 281 281 280 280 282 279 279 279 278 279 278 278 277 275 276 275 275 275 274 275 275 276 275 275 276
291 291 290 287 287 286 285 285 283 283 283 285 285 286 286 287 287 287 287 287 288 289 289 289 289 289 289 289 289 289 288 287 287 286 286 286 286 286 286 285 285 285 285 284 284 284 284 283 283 283 282 282 283 282 282 282 282 281 280 281 280 280 280 280 279 279 279 279 278 278 278 278 277 277 277 277 276 276 276 275 275 275 276 276 277
289 288 287 287 286 285 284 284 282 282 284 285 285 286 286 286 286 287 287 287 287 288 288 288 288 288 289 288 289 289 288 288 287 287 286 286 286 286 285 285 285 284 284 284 284 283 284 283 282 282 282 282 283 282 281 281 281 281 280 280 280 280 280 280 279 279 279 279 279 278 278 278 277 277 278 277 277 277 276 274 275 275 273 275 276
286 286 286 287 288 285 284 284 283 283 283 285 285 286 286 287 286 287 287 286 287 287 288 288 288 289 288 288 288 288 288 288 287 287 287 287 287 286 286 286 285 285 285 284 285 284 284 284 283 283 282 282 282 281 281 281 281 281 280 280 280 280 279 280 279 279 279 278 278 278 277 278 277 277 277 277 276 276 274 274 274 274 274 274 276
284 287 287 287 287 284 285 285 284 283 283 284 285 286 286 287 287 287 287 286 286 287 287 287 288 288 288 288 288 288 288 287 287 288 287 286 286 286 286 286 286 286 285 285 285 284 284 283 283 282 282 282 282 281 281 281 281 281 280 280 280 279 279 279 278 278 278 277 277 277 277 277 277 277 277 277 277 277 276 275 274 272 272 273 273
287 287 288 288 285 284 284 284 284 283 283 283 284 285 285 287 287 287 287 286 286 286 287 288 288 288 287 287 287 287 287 287 286 287 287 286 286 286 286 286 286 286 285 285 285 284 284 283 283 282 282 281 281 281 281 281 280 280 279 279 279 279 278 278 278 278 278 277 277 277 277 277 277 277 277 277 277 277 276 276 275 274 272 270 273
288 288 287 288 287 284 284 284 284 284 283 284 284 285 286 286 286 286 286 286 286 287 287 287 287 287 287 287 287 286 286 286 287 286 286 285 285 285 285 285 285 285 285 285 284 284 284 283 282 282 281 281 281 281 281 280 280 280 279 279 278 278 278 278 277 277 277 277 277 277 277 277 276 277 277 277 276 276 276 276 276 275 274 271 270
286 286 286 285 286 286 285 285 284 284 284 283 284 284 285 286 286 286 286 286 286 286 286 287 287 287 287 287 287 287 287 287 287 286 285 284 284 285 285 284 285 285 285 285 284 283 283 283 282 281 281 281 281 280 280 280 280 279 279 279 279 278 278 277 277 277 277 277 277 276 276 276 276 276 276 276 276 276 276 276 275 276 275 273 272
288 288 289 286 285 287 286 286 285 284 284 283 283 283 284 283 284 285 286 287 287 287 286 286 286 287 288 287 287 287 287 287 286 286 284 284 284 284 284 285 284 284 284 283 283 283 283 282 282 281 281 280 280 280 280 279 279 279 278 278 278 278 277 277 277 277 277 276 276 276 276 275 276 275 275 276 276 276 275 275 275 275 275 275 273
289 293 296 298 295 287 288 287 285 284 283 283 283 283 284 284 284 284 285 285 285 286 286 286 287 287 287 287 287 287 287 287 286 285 284 284 284 284 284 283 284 284 283 283 283 283 282 282 281 281 280 280 280 280 279 279 278 278 278 277 277 277 277 276 276 276 276 276 276 275 275 275 275 275 275 275 275 276 275 275 275 275 274 274 274
289 291 292 293 296 294 287 287 286 284 283 283 283 283 283 283 284 285 285 285 285 286 286 286 287 286 286 286 286 286 286 286 285 285 284 284 284 284 284 284 283 282 283 283 282 282 282 282 281 281 280 280 279 279 279 278 278 277 277 277 276 277 276 276 276 275 276 275 275 275 275 275 275 274 274 274 274 274 275 275 274 274 273 273 273
292 293 293 294 294 292 288 286 285 285 284 283 283 282 283 283 285 285 285 285 285 286 286 287 286 287 286 286 286 286 286 285 285 284 284 284 283 283 283 282 282 282 283 282 282 282 282 281 281 280 280 280 279 279 278 278 278 277 276 276 276 276 276 275 275 275 275 275 275 274 274 274 274 274 274 273 273 273 273 273 273 273 272 272 273
291 292 293 294 291 287 287 287 286 286 285 284 283 283 284 284 284 284 285 285 286 286 287 286 286 286 286 286 286 285 285 284 284 284 284 284 283 283 283 282 282 282 282 282 282 282 281 281 280 280 279 279 279 278 278 278 277 277 276 276 276 276 276 275 275 275 275 275 274 274 274 273 273 273 273 272 273 272 272 272 271 272 271 271 272
292 291 291 292 289 286 286 287 287 286 285 285 285 284 284 284 284 284 284 285 285 286 286 285 285 285 285 285 285 285 284 284 284 284 284 284 284 283 282 282 282 282 281 282 282 281 281 280 280 279 279 279 278 278 278 278 277 277 276 276 276 276 276 275 275 275 274 274 274 273 273 273 272 272 271 271 272 271 271 271 271 271 271 271 271
290 291 291 290 288 287 287 287 287 287 287 286 286 286 285 284 283 283 284 285 285 285 285 285 285 285 285 284 284 284 284 284 284 284 284 284 283 283 282 282 281 281 281 281 281 281 280 280 280 279 279 278 278 278 277 277 277 277 277 276 276 276 275 275 275 275 275 274 273 273 272 272 272 271 271 270 271 270 271 270 270 270 270 271 271
291 289 288 288 288 288 288 287 288 288 288 287 287 286 285 284 284 283 283 284 284 283 284 284 284 284 284 284 284 284 284 284 284 284 284 284 283 283 281 281 281 281 281 281 280 280 280 280 280 279 279 278 278 278 277 277 277 277 276 276 276 275 275 275 274 274 274 273 273 272 272 271 271 270 270 270 270 270 270 270 270 270 270 270 270
287 288 288 288 288 288 288 288 288 287 287 287 287 286 285 285 285 285 285 284 283 283 283 284 284 284 284 284 284 284 284 284 284 284 284 283 283 282 281 281 281 281 280 280 280 280 280 280 280 279 279 278 278 277 277 277 276 276 276 275 275 274 274 274 274 273 273 272 272 271 271 271 271 270 270 270 270 270 270 270 270 270 270 270 270
287 287 286 286 286 287 287 287 287 288 288 288 287 287 287 288 287 287 285 285 285 283 283 283 283 283 283 284 284 284 284 285 284 284 283 283 282 282 281 281 280 280 280 280 280 280 280 280 280 279 279 278 277 277 277 276 276 276 275 274 274 273 273 273 272 272 272 272 271 271 271 271 271 271 270 270 270 270 270 270 270 270 270 270 270
284 285 285 285 285 286 286 287 287 288 288 288 289 289 289 288 287 286 284 284 283 282 282 282 282 283 283 284 284 284 284 284 283 283 282 282 282 282 281 280 280 280 280 280 280 280 279 279 279 279 278 278 277 277 277 276 275 275 275 274 273 273 272 272 271 271 271 271 270 270 271 271 271 273 274 273 273 273 270 269 270 271 271 271 271
283 283 284 284 285 285 286 286 287 287 287 288 288 288 289 289 290 290 289 286 282 282 282 282 281 282 283 283 283 283 283 283 283 282 282 282 282 281 280 280 280 280 280 280 279 279 279 278 278 277 277 277 277 277 278 280 279 275 274 273 273 272 272 271 271 270 270 270 270 270 271 273 274 275 275 275 276 276 275 272 272 272 272 272 271
282 283 283 284 284 284 285 285 286 286 287 287 287 288 288 288 289 289 289 289 285 283 282 281 282 283 283 282 282 282 282 282 283 283 282 281 281 280 280 279 279 279 279 278 279 278 278 278 278 277 276 276 276 276 280 282 281 280 275 273 272 272 272 271 271 270 269 270 270 270 271 273 274 275 275 277 277 277 277 277 276 276 276 274 272
282 282 282 283 283 284 284 285 285 286 286 286 287 287 287 287 287 287 288 288 286 283 283 282 283 283 282 282 282 282 281 282 282 282 282 281 281 280 279 279 278 278 278 278 278 278 278 278 278 277 276 276 276 279 281 282 282 281 278 273 272 272 271 271 271 270 270 270 270 270 271 273 274 274 274 275 277 278 278 279 279 279 279 280 279
281 281 282 282 282 283 283 284 285 286 286 286 286 286 286 286 286 286 287 287 286 284 283 283 283 282 282 281 281 281 281 281 281 282 281 281 280 280 279 278 278 278 278 278 278 278 278 278 277 276 276 276 275 280 282 283 282 282 280 275 272 272 271 271 271 271 271 271 271 271 272 273 274 276 276 275 275 276 278 279 278 278 278 279 279
281 282 282 283 283 283 283 283 284 285 285 286 286 285 285 285 285 286 286 286 285 284 282 282 282 282 281 281 281 281 281 281 281 281 280 280 279 279 279 279 278 278 278 278 277 277 277 277 276 276 276 275 275 279 282 283 283 282 281 277 271 271 271 271 271 271 272 273 273 273 273 273 274 275 275 274 274 273 273 273 273 273 273 275 277
281 281 282 282 283 283 283 284 284 285 285 285 285 285 285 285 285 285 285 284 284 282 281 280 280 280 279 279 280 280 280 280 280 280 280 279 279 278 278 278 278 278 278 277 277 276 276 276 276 275 275 274 274 280 282 283 283 283 282 277 271 271 271 271 272 273 273 274 274 274 274 273 273 274 274 274 273 272 272 271 270 271 272 273 274
282 282 283 283 283 283 283 284 285 285 285 285 285 285 284 284 285 284 284 283 283 282 282 281 280 280 279 279 278 279 279 279 279 279 279 279 278 278 278 278 277 277 277 277 276 276 276 275 275 275 274 273 273 280 282 283 284 283 282 273 271 271 271 272 272 273 274 274 275 275 274 273 273 273 275 276 275 273 272 271 271 272 273 274 274
283 283 283 284 283 284 284 285 285 285 285 285 286 286 285 284 284 284 283 282 282 282 282 281 280 280 280 279 279 279 279 278 278 278 278 278 278 277 277 277 276 276 276 275 275 275 276 275 274 274 273 273 273 279 282 283 284 284 280 271 271 271 271 272 272 273 274 274 275 274 274 272 273 272 275 277 278 276 273 272 272 272 273 272 273
283 283 283 284 284 284 285 285 285 285 285 285 286 285 284 284 284 284 283 283 283 283 281 280 279 279 279 279 279 279 279 278 277 277 277 277 276 276 276 276 276 275 274 274 275 274 274 274 273 273 273 272 272 277 282 283 284 284 279 271 271 271 271 272 272 274 274 274 275 276 274 273 272 272 276 277 278 277 274 273 273 272 272 271 272
282 282 282 283 283 283 284 284 283 283 284 285 285 285 284 284 284 284 283 283 284 284 282 280 280 279 278 278 278 278 279 278 277 277 276 276 276 276 276 274 274 275 274 274 273 273 273 272 273 273 275 273 272 276 282 283 284 284 278 272 272 272 272 272 272 273 273 273 273 275 275 274 273 274 277 277 278 277 274 274 273 272 271 271 273
282 282 282 283 283 282 282 282 282 282 284 284 284 284 284 284 284 284 283 284 284 284 282 280 279 279 278 277 277 277 277 277 277 276 275 275 274 272 272 273 273 273 272 272 271 272 271 271 272 272 272 273 271 273 279 283 284 284 280 273 273 272 271 272 272 272 271 272 272 273 275 277 276 276 277 278 278 278 275 274 274 272 272 271 274
281 281 283 282 282 281 281 281 281 282 282 283 283 283 283 283 283 283 283 284 285 284 281 280 279 277 276 276 275 276 276 275 275 274 274 273 272 273 271 271 270 270 270 270 270 270 270 270 270 271 271 272 272 272 277 283 284 284 282 277 273 273 273 272 272 271 271 271 271 272 273 277 278 278 278 278 278 278 277 275 274 273 273 274 274
281 282 281 280 280 280 280 280 280 281 281 282 282 281 281 281 282 282 283 285 285 284 282 280 278 277 276 275 275 275 275 275 273 274 273 273 271 271 271 270 270 269 270 269 269 269 269 269 269 270 270 271 272 274 274 282 284 284 283 280 274 273 274 273 272 271 271 271 271 271 271 275 278 279 278 278 277 277 277 276 275 276 276 276 274
279 279 280 280 278 278 278 278 278 279 280 280 280 279 279 280 280 281 284 284 285 284 283 281 279 277 276 276 275 276 276 276 275 275 274 272 271 271 271 271 270 269 269 268 268 269 269 269 268 269 270 271 271 273 277 279 283 284 284 281 278 276 278 273 272 270 271 271 272 272 273 276 277 277 277 277 277 277 277 276 276 276 275 275 272
278 278 278 279 277 277 276 276 277 277 278 278 278 277 278 278 279 282 283 284 284 284 284 282 280 278 277 276 276 276 275 275 275 275 274 273 271 270 271 271 271 270 269 268 268 268 269 268 268 268 269 269 270 271 276 280 281 284 284 281 280 279 279 273 272 271 272 272 272 272 273 276 276 276 276 276 277 277 275 274 274 274 274 271 264
276 276 277 277 275 274 274 274 275 275 276 276 277 276 277 276 278 280 280 281 283 284 284 283 282 281 279 278 276 276 275 275 274 275 274 273 271 270 270 270 270 270 270 269 269 269 268 268 268 267 267 268 269 270 272 277 281 282 284 282 280 279 279 277 272 272 273 273 274 275 276 276 275 275 276 276 274 273 273 272 272 272 269 262 259
275 275 275 274 273 272 271 271 272 273 274 275 275 276 274 275 277 277 278 281 283 282 281 281 282 282 281 279 277 276 275 275 274 275 275 274 272 271 271 270 270 270 270 270 269 269 268 268 267 267 267 267 268 269 271 274 279 281 282 281 280 279 278 277 274 273 275 276 276 276 276 275 275 274 270 268 266 267 270 271 270 268 261 259 257
272 273 273 271 270 269 269 269 270 271 272 273 273 273 274 274 275 276 278 280 278 277 277 278 279 280 281 280 277 276 275 274 274 274 274 274 273 272 271 271 270 270 270 270 270 269 268 268 266 267 267 267 268 269 270 273 276 278 279 279 278 277 278 277 273 273 275 274 275 274 273 274 271 272 271 270 269 268 263 262 261 261 259 258 257
271 271 270 269 268 267 268 268 268 270 270 270 270 271 272 273 274 276 276 275 274 274 274 274 275 277 278 279 278 275 274 274 273 273 273 273 272 272 271 271 270 270 270 270 270 269 269 269 267 267 267 266 267 268 269 272 274 276 277 278 276 276 275 273 272 273 272 272 272 273 271 267 265 263 262 260 260 259 259 259 259 258 258 258 261
268 268 267 266 266 266 267 267 267 268 268 268 268 269 270 272 273 273 271 270 270 271 272 272 273 275 276 278 277 276 275 275 274 273 273 274 273 272 272 272 273 273 272 271 270 270 270 270 270 268 267 266 267 267 269 274 275 278 277 276 275 275 274 272 273 274 268 267 265 263 262 262 261 260 259 258 258 257 256 257 257 256 256 256 255
267 267 266 266 266 265 265 265 265 266 266 266 266 267 267 268 268 268 268 267 268 269 270 271 272 273 275 277 276 275 274 274 274 273 272 272 274 276 274 272 272 274 276 276 275 272 271 271 270 270 270 268 267 269 273 276 278 279 280 279 278 277 275 273 275 274 269 265 264 263 262 261 260 259 258 258 257 256 256 256 256 260 259 256 256
266 265 264 264 264 265 264 264 264 264 264 264 264 264 264 265 266 266 266 266 267 268 269 270 271 272 274 275 276 275 274 274 273 273 272 271 270 273 277 277 276 275 276 277 277 277 276 275 272 270 271 274 273 273 275 277 278 279 280 279 278 277 276 276 276 270 266 264 263 262 261 259 259 259 258 258 257 257 256 256 256 256 256 257 258
Wind_Speed
20 15 9 8 9 9 9 9 10 10 10 12 14 14 15 16 15 16 14 13 13 13 12 13 13 9 7 11 13 11 11 9 9 9 9 9 9 9 9 9 9 9 8 8 9 8 7 6 7 6 6 7 7 7 6 7 5 5 6 3 4 4 3 3 2 2 3 2 2 4 5 3 2 1 3 3 5 4 4 6 5 5 6 6 5
13 14 15 7 6 5 6 7 7 10 11 11 15 17 17 13 16 15 12 14 15 16 15 14 14 16 16 16 14 13 12 12 13 10 10 8 9 9 9 8 9 9 9 9 8 9 8 8 8 8 7 7 5 4 5 5 5 6 6 5 2 3 2 2 3 1 5 2 2 5 6 4 3 3 3 0 3 3 3 4 4 5 6 5 6
16 16 16 6 6 6 7 8 10 15 14 16 16 12 12 14 14 12 13 14 14 14 13 15 12 10 11 9 11 8 6 6 5 6 6 8 9 9 9 9 9 9 9 9 9 9 9 9 8 7 7 7 7 7 6 6 6 7 5 7 5 3 3 1 4 2 3 2 2 2 3 4 3 4 2 2 1 0 2 2 1 4 4 3 4
18 18 16 5 8 8 7 8 10 8 7 8 9 13 12 12 12 14 14 15 14 15 14 11 10 6 3 3 4 4 5 5 5 5 6 6 9 9 9 10 10 10 10 9 8 8 9 9 7 7 7 6 7 8 8 7 6 5 4 4 8 4 2 1 2 3 3 3 3 2 0 1 1 1 5 6 3 2 3 2 1 3 3 4 4
19 18 14 7 4 7 10 11 8 10 11 12 12 13 12 16 16 15 14 15 13 14 14 11 9 8 6 7 6 6 5 5 6 6 9 9 7 9 12 10 11 10 9 10 9 9 8 7 8 7 7 7 7 7 8 9 7 6 6 6 5 8 4 2 1 2 1 0 5 3 1 1 2 1 3 6 3 2 1 1 1 1 1 2 2
18 19 17 10 7 6 6 5 7 9 11 12 12 13 11 11 12 13 11 11 12 13 14 12 13 13 12 11 10 8 8 9 12 16 13 14 16 8 6 10 10 9 10 10 9 8 9 8 7 8 7 7 7 7 5 5 6 7 7 6 5 2 7 5 2 0 2 3 2 1 2 2 3 2 1 2 4 1 3 1 0 1 1 1 1
11 11 13 12 9 5 6 8 10 11 13 6 6 8 9 10 12 13 13 12 11 12 14 12 12 12 15 16 16 16 16 13 12 9 11 9 7 10 10 8 10 11 10 10 9 9 8 8 9 8 8 7 5 6 7 8 7 6 5 5 5 5 7 5 7 5 2 2 2 3 5 3 5 5 3 1 4 4 3 1 2 2 0 0 3
11 11 12 11 7 7 10 10 10 13 6 6 7 8 11 12 12 13 11 12 12 12 14 14 14 14 14 13 13 13 15 14 11 10 8 8 10 10 9 10 10 10 10 10 10 10 10 9 9 9 8 8 7 8 8 6 6 4 5 4 5 6 7 9 7 7 7 4 2 3 4 4 3 3 3 5 2 2 6 2 2 3 2 3 5
9 12 14 7 6 7 7 9 9 5 8 10 10 10 10 10 11 10 12 12 12 15 15 15 14 15 15 14 13 12 12 7 6 6 8 9 10 8 9 9 9 9 10 10 10 10 10 10 10 9 9 9 8 7 6 7 9 9 8 7 7 7 5 5 8 8 6 8 7 2 4 3 3 2 3 2 4 3 5 4 2 2 4 7 5
12 11 10 7 6 7 7 3 4 7 5 6 6 7 8 8 11 12 12 11 12 14 15 15 15 13 14 14 16 12 8 6 7 9 9 9 11 10 9 9 9 9 9 9 10 10 10 10 10 11 10 9 8 9 8 8 8 8 8 8 7 7 5 7 8 7 6 6 7 8 6 4 2 1 1 3 1 3 5 4 2 2 6 3 2
11 6 5 5 3 4 2 5 4 3 4 5 6 7 8 10 11 13 13 11 12 15 15 17 15 14 15 15 16 14 12 10 9 9 9 9 12 11 11 10 9 10 9 9 10 10 10 10 10 10 9 9 9 9 10 10 9 9 8 7 8 9 7 7 5 5 6 7 6 8 9 10 9 6 7 5 4 3 2 5 3 4 3 10 2
6 9 9 5 3 1 0 3 3 4 4 6 6 7 8 9 10 12 10 12 11 13 14 15 15 15 14 15 16 15 14 13 15 15 14 14 13 12 10 8 10 9 9 9 10 10 10 9 9 9 10 10 10 9 8 9 8 8 8 8 8 7 6 7 7 8 7 6 6 6 6 6 5 6 6 6 6 4 3 6 7 2 5 7 3
7 6 6 7 6 6 4 4 4 5 7 7 9 9 9 9 12 14 13 11 12 12 14 14 14 15 15 15 14 12 14 15 15 14 13 13 12 12 12 13 10 10 12 12 11 12 11 10 11 11 10 10 9 9 8 9 9 9 9 9 8 9 9 9 9 9 10 10 9 6 6 6 6 5 6 6 5 5 4 3 3 2 5 9 3
4 4 5 6 6 4 4 5 4 4 6 8 8 9 10 10 12 14 14 13 12 12 14 14 16 16 14 14 13 12 13 13 12 13 12 11 11 13 14 14 13 15 14 15 13 12 11 11 10 10 9 8 9 10 9 10 10 10 10 10 10 8 8 9 8 8 7 6 6 7 6 7 6 6 6 7 6 6 5 5 2 2 1 8 7
4 6 6 6 6 5 4 5 5 5 5 7 7 9 9 10 12 14 13 14 14 15 13 16 15 14 13 12 12 11 13 12 12 11 11 12 11 13 12 11 12 13 13 11 10 13 13 11 11 11 10 9 9 9 9 9 9 8 8 9 8 8 9 8 7 9 9 8 7 7 7 6 7 6 6 6 6 6 6 5 5 2 4 3 5
9 7 8 7 6 5 5 4 5 5 6 6 8 8 10 10 10 13 15 14 13 13 15 17 16 12 11 12 14 13 10 9 9 9 11 13 13 14 13 13 12 10 9 10 12 12 13 13 11 12 10 10 10 10 10 10 10 10 9 8 10 6 9 10 8 8 8 8 7 6 6 6 6 7 6 6 6 6 5 5 5 5 4 5 3
8 9 7 9 7 5 5 5 5 6 8 11 11 10 11 10 10 11 10 9 14 16 16 12 11 11 15 15 13 12 14 15 15 15 13 10 10 11 11 12 10 10 11 11 12 12 12 13 12 12 11 11 10 10 10 10 10 10 10 10 10 8 9 10 8 8 7 7 6 7 7 6 6 6 6 6 6 6 6 5 6 7 6 3 2
9 9 7 7 7 7 6 6 6 6 6 6 8 8 9 9 10 10 10 13 15 15 14 13 14 14 13 15 15 16 15 15 12 12 11 10 10 10 9 9 13 12 10 9 11 13 13 13 12 12 11 11 12 10 10 10 10 9 9 9 8 8 8 6 7 7 8 7 6 6 5 6 6 6 7 6 6 6 6 6 6 5 6 7 6
9 10 8 5 4 5 6 7 6 6 5 5 5 6 7 7 7 9 14 14 11 9 10 10 11 12 12 15 16 15 13 13 12 10 9 12 13 13 13 13 9 10 11 11 12 12 12 12 12 11 11 12 11 11 10 9 9 8 8 8 7 8 8 8 7 8 7 8 8 8 6 6 6 7 6 6 5 6 6 6 5 5 6 6 6
8 13 17 21 18 4 6 6 6 6 6 6 6 6 10 9 9 10 8 7 8 12 13 15 16 14 14 11 12 13 14 14 13 12 12 13 13 12 11 10 13 11 10 12 12 13 14 14 12 12 11 11 11 10 10 10 9 8 8 8 8 9 9 9 8 7 7 8 8 9 8 7 7 6 6 6 6 5 5 6 5 6 5 5 5
10 10 10 9 14 15 0 4 5 5 5 5 6 8 8 6 11 12 15 15 13 14 11 14 12 15 15 15 16 14 15 13 11 12 13 12 11 12 12 12 8 11 12 13 14 14 14 13 13 13 13 13 12 11 10 10 10 9 8 8 8 9 10 8 8 8 7 7 8 8 8 7 7 7 6 6 6 6 5 5 5 5 5 5 6
14 12 10 10 11 14 8 2 5 6 7 7 7 5 8 12 13 11 10 11 13 12 14 16 14 13 14 16 15 12 12 10 12 12 13 12 12 12 12 10 13 13 13 14 15 13 13 14 13 13 12 12 12 12 12 11 12 11 10 7 9 10 10 9 9 9 9 8 8 9 8 7 6 7 6 6 6 6 5 5 5 6 6 6 5
12 12 10 12 10 7 8 12 8 7 6 5 6 9 12 12 10 9 11 14 14 16 14 11 10 12 14 13 11 11 10 12 14 13 14 14 13 12 11 14 13 12 11 13 14 14 14 14 14 13 13 13 13 13 12 12 12 12 12 11 10 12 12 12 12 12 11 9 9 8 8 7 6 7 6 6 6 6 5 6 6 4 5 5 4
11 9 9 10 9 7 7 8 7 6 6 8 9 9 10 10 11 9 12 15 13 12 9 9 10 12 12 10 12 11 11 13 14 14 16 15 13 12 11 13 12 11 13 12 13 14 14 15 15 15 15 15 14 14 13 13 14 14 13 13 12 12 11 11 12 11 11 11 11 9 8 8 7 8 6 6 6 5 6 5 5 4 4 5 4
10 12 11 12 12 11 9 9 9 9 8 7 8 8 7 8 5 8 12 11 9 7 7 10 11 13 12 13 14 13 14 14 16 14 17 16 14 13 11 13 12 13 13 13 13 13 14 15 16 17 17 16 16 16 15 14 13 13 13 13 13 12 12 11 11 11 11 11 10 10 10 9 9 8 6 7 6 7 5 5 5 5 5 5 4
11 12 13 14 13 12 9 9 10 10 8 8 7 5 5 7 10 8 11 11 9 6 8 10 12 13 14 15 15 13 15 17 18 17 17 15 14 13 12 11 13 14 13 14 14 13 15 17 16 16 17 17 16 16 17 16 16 14 13 12 12 11 11 10 10 9 10 9 10 9 9 9 9 9 8 7 7 7 6 6 6 6 5 5 6
11 12 12 13 16 18 17 14 10 8 9 10 10 11 9 8 10 10 10 11 8 7 10 11 13 13 13 14 14 14 15 16 17 17 13 12 13 13 13 14 13 14 14 14 14 16 15 17 18 16 17 17 17 16 15 15 14 14 14 13 12 11 10 9 9 9 9 9 8 8 9 9 9 8 8 9 8 8 7 8 8 7 6 6 6
13 14 16 15 14 15 16 15 15 14 11 9 8 9 10 11 12 11 9 10 9 7 10 11 12 13 14 14 13 14 14 16 13 11 11 12 12 12 13 12 11 13 14 16 16 16 15 14 15 15 16 15 15 15 14 14 14 14 13 13 12 12 11 9 9 9 9 8 8 8 8 8 9 8 9 8 9 9 8 8 7 6 5 6 6
15 14 13 13 14 13 15 16 16 17 18 16 13 11 9 8 8 9 8 9 9 8 11 11 11 13 15 13 12 11 12 11 10 10 12 12 13 13 12 12 13 14 12 14 13 14 13 13 12 13 13 12 14 14 13 14 14 14 12 13 13 12 12 12 10 9 8 8 8 7 8 8 9 11 13 11 11 9 7 7 6 6 5 6 6
14 13 14 14 14 15 15 15 17 18 19 19 19 19 19 19 18 17 13 7 5 10 11 10 11 13 12 9 10 9 9 10 11 13 14 13 12 12 12 13 13 13 13 12 12 13 14 15 14 13 12 12 12 11 13 21 18 15 14 12 11 11 12 11 12 10 9 9 8 8 7 14 15 15 15 16 16 15 13 8 6 7 7 7 6
12 12 13 13 15 15 16 17 17 17 17 16 17 17 17 19 19 20 19 17 10 9 8 8 12 12 10 8 9 10 9 11 13 11 10 11 12 11 12 12 12 12 13 12 13 15 15 14 15 15 15 14 12 11 19 23 23 22 15 13 13 12 11 11 11 12 11 10 8 8 7 12 13 14 13 17 15 15 14 14 15 13 11 8 6
11 11 11 12 14 15 16 16 16 16 17 16 16 15 15 17 18 18 18 18 15 10 10 11 12 11 9 9 9 9 9 12 9 12 11 11 10 10 11 12 12 13 12 12 14 15 14 15 14 15 16 15 13 16 24 25 24 25 20 13 12 12 11 11 11 11 9 9 9 9 8 7 9 10 8 9 12 14 14 15 16 16 16 16 14
11 12 13 12 10 10 12 13 13 14 16 16 14 14 15 15 16 16 15 16 16 13 12 12 11 9 9 8 7 8 10 10 11 11 9 9 11 11 12 12 15 14 11 13 15 15 16 14 14 16 15 13 12 19 25 26 25 26 25 17 11 11 12 11 11 11 11 9 9 9 9 8 7 15 11 8 7 7 11 15 14 14 14 15 14
8 9 10 12 11 11 10 9 9 10 11 12 11 11 13 12 12 13 14 16 16 15 11 11 10 8 7 6 7 7 9 9 7 7 8 10 11 14 13 11 9 9 13 14 13 15 14 14 15 15 14 13 12 18 25 25 25 26 25 19 11 12 11 11 12 11 9 10 11 9 9 8 8 10 9 8 7 7 5 4 4 3 3 7 12
8 9 9 11 12 12 13 12 11 11 12 12 14 13 14 15 14 14 14 15 15 14 13 10 9 8 6 5 5 6 7 6 5 6 7 9 11 9 10 11 11 13 14 15 14 14 13 12 12 12 11 12 11 21 25 26 25 26 25 18 10 10 9 9 9 9 10 9 10 9 9 9 9 8 7 8 6 6 5 5 4 5 5 5 6
10 11 11 9 10 12 14 13 11 11 12 11 12 13 13 15 14 12 13 12 13 13 12 11 10 8 5 5 5 5 5 4 5 5 8 9 9 10 11 9 8 8 7 7 8 9 11 12 12 12 12 12 10 23 24 25 26 25 26 13 11 11 10 10 9 9 9 9 9 10 9 8 8 8 11 15 11 7 7 8 8 8 6 6 5
9 9 10 9 7 9 10 10 11 12 13 13 13 14 14 14 14 14 13 12 11 12 13 11 11 10 8 5 4 5 5 4 4 6 8 8 9 9 8 6 8 8 9 10 10 10 10 11 13 12 13 11 11 21 26 26 27 28 20 11 11 10 10 10 10 10 10 10 9 10 10 9 9 9 12 16 17 15 9 10 8 6 4 4 6
9 9 8 9 9 9 9 9 11 12 12 12 14 14 14 13 13 13 13 14 12 11 11 10 11 10 8 7 5 4 5 5 6 8 9 8 6 4 7 7 10 10 10 10 8 8 8 9 12 13 14 13 12 19 27 27 28 30 19 14 12 12 11 10 10 9 9 8 10 16 12 10 10 10 16 17 17 13 8 7 5 5 5 6 6
8 10 11 10 10 10 10 10 12 13 13 13 15 14 13 13 13 12 12 13 13 12 11 10 10 9 8 6 5 5 6 7 8 8 7 7 7 8 6 6 7 7 8 7 8 8 8 8 10 11 12 13 11 16 26 27 29 30 20 13 12 12 12 11 11 10 8 8 9 13 16 12 11 12 19 18 18 13 7 7 7 6 7 8 6
9 7 7 9 9 11 12 12 13 13 13 14 14 14 15 13 13 12 12 14 14 13 12 10 9 8 7 6 5 6 6 6 7 5 5 6 5 5 6 7 6 6 6 7 7 7 9 8 7 9 10 11 12 12 18 29 28 30 26 15 12 13 13 13 11 11 11 9 9 9 14 18 18 19 19 19 17 16 9 7 6 6 7 6 2
10 10 10 9 9 9 11 13 12 13 14 13 13 14 15 15 14 13 13 14 14 13 12 10 9 8 7 6 5 4 6 5 5 6 5 5 5 7 7 7 7 5 5 6 7 7 8 7 7 8 9 10 10 13 16 28 29 30 27 23 13 14 12 13 13 12 9 10 10 9 7 17 21 20 19 19 17 15 12 8 8 6 6 4 4
7 10 10 10 10 11 12 12 12 13 13 12 12 14 15 15 14 15 14 13 13 13 12 10 9 8 7 6 5 5 4 5 4 5 6 7 5 6 7 7 7 7 8 7 7 7 7 7 6 8 8 9 9 15 13 23 29 31 29 27 14 13 13 13 13 10 8 9 8 9 8 14 22 21 19 17 16 14 14 7 6 9 9 9 6
10 10 8 9 11 12 12 13 13 12 11 12 13 15 15 14 15 16 14 13 13 13 13 11 9 8 7 7 6 6 6 4 5 6 8 7 6 7 7 7 7 7 9 9 8 8 7 7 6 7 7 8 9 10 17 15 26 30 30 26 21 14 21 11 12 12 10 9 8 9 10 17 19 18 16 16 14 14 11 5 6 6 7 8 1
9 9 10 10 11 12 14 14 13 12 11 11 12 15 15 16 17 14 13 14 14 14 13 12 11 9 8 7 7 6 6 5 6 7 7 8 8 8 8 8 8 9 8 9 8 8 8 9 9 6 6 7 7 8 12 17 19 29 27 25 25 23 21 11 9 8 8 9 9 8 10 18 15 15 14 13 12 10 5 5 5 5 5 2 5
11 10 8 8 11 14 15 16 14 13 12 11 11 13 18 19 16 13 15 16 15 14 13 13 13 11 9 8 6 6 6 6 7 8 9 8 8 9 9 8 9 9 9 10 9 9 10 11 10 11 6 5 4 5 7 14 19 21 27 24 24 24 22 20 11 8 8 8 10 16 18 16 15 13 14 10 5 6 5 4 4 4 4 5 2
10 9 8 8 10 11 13 16 17 13 11 11 11 12 18 20 17 14 15 15 13 15 16 16 14 12 11 8 7 7 6 7 8 8 9 9 11 10 10 9 10 10 10 10 10 10 10 10 12 7 7 7 7 5 9 9 13 18 20 24 25 25 23 22 15 11 14 17 18 18 18 17 15 10 6 5 3 2 3 4 2 5 4 2 1
11 10 9 11 10 12 15 16 19 18 11 10 13 13 14 16 17 17 15 13 15 16 17 17 16 15 13 10 9 7 6 7 8 7 7 8 8 9 10 10 11 11 11 10 10 11 11 10 9 9 7 7 7 9 10 10 9 11 11 15 17 17 22 21 14 11 14 12 15 13 10 11 9 11 9 7 6 5 4 3 3 2 1 1 2
9 9 8 9 11 12 15 17 19 19 15 13 13 15 16 16 16 15 13 15 17 17 16 17 18 15 14 12 10 10 9 7 8 9 9 8 8 10 11 13 13 14 14 13 12 12 13 13 9 7 6 6 9 13 13 14 15 14 14 14 14 14 14 12 13 12 11 11 10 12 12 8 7 7 5 4 3 3 2 2 1 1 1 3 4
12 10 7 10 11 14 15 16 19 18 17 16 16 15 16 17 15 13 15 16 18 18 17 18 17 14 14 12 10 9 9 9 8 9 10 10 11 12 13 12 11 10 12 14 14 13 12 10 10 13 13 10 11 15 17 14 15 18 17 15 15 15 13 13 16 19 12 10 9 7 7 7 7 7 5 4 3 2 1 1 1 1 1 1 2
11 9 10 12 13 13 14 16 17 16 15 16 16 17 17 15 14 12 14 16 18 16 15 14 14 14 14 11 9 9 9 9 9 9 9 9 10 14 11 10 9 13 18 16 13 11 10 10 11 11 13 16 18 15 16 24 25 25 26 22 19 20 19 17 22 27 15 11 9 8 7 7 7 7 6 5 5 4 4 2 1 1 1 1 3
12 12 14 14 14 14 15 18 19 16 15 16 16 18 18 15 11 12 14 17 16 15 14 14 12 12 13 13 11 11 9 8 9 9 8 9 8 9 19 20 14 12 16 21 21 19 17 18 13 11 12 17 11 14 23 25 27 28 28 25 23 24 26 27 28 17 11 10 10 9 8 7 7 7 6 7 7 6 4 3 2 1 2 4 6
Wind_Direction
262 269 259 232 222 210 205 194 200 200 198 190 192 194 192 190 181 190 185 174 172 172 176 173 174 173 182 191 195 189 190 185 188 191 189 190 180 180 179 180 175 173 175 172 178 174 177 173 170 179 173 169 169 173 164 158 158 150 138 123 123 94 43 16 33 70 51 18 21 16 354 20 32 81 110 65 44 32 30 25 354 24 23 16 355
270 275 264 228 232 211 196 194 185 189 209 193 194 196 195 184 186 186 172 180 182 182 180 180 184 185 182 190 190 188 182 184 193 190 192 183 181 181 182 178 176 178 177 178 175 176 173 177 181 180 175 173 168 151 155 158 150 145 145 83 37 121 86 355 335 92 28 91 21 335 346 359 28 71 115 33 35 33 48 32 343 34 26 5 1
269 262 268 230 212 205 193 200 201 202 198 195 199 189 186 187 190 178 181 180 185 181 178 188 188 188 188 187 188 181 191 187 175 175 165 178 186 184 180 179 178 181 179 181 178 180 181 177 185 175 175 163 154 162 165 161 163 160 165 136 107 55 97 17 6 51 135 124 142 84 1 10 333 8 337 313 31 68 80 41 349 45 27 1 4
264 265 269 236 200 196 202 207 209 204 199 199 188 190 188 190 185 182 184 184 182 186 186 185 177 165 139 107 129 123 159 142 134 142 169 169 192 186 187 185 183 182 182 180 179 183 180 183 171 175 176 176 170 164 169 169 163 163 148 142 132 109 75 17 6 10 116 116 20 62 176 95 326 347 335 303 23 109 89 84 49 50 18 12 24
270 273 271 252 189 208 205 209 195 202 204 198 190 189 189 191 186 183 181 184 184 181 178 163 141 125 110 89 92 86 81 124 137 175 189 193 182 191 197 183 184 184 178 183 182 182 181 176 175 177 174 180 175 172 176 178 174 168 162 150 153 141 148 135 340 15 357 265 146 104 43 19 219 257 352 290 344 352 21 106 69 45 29 42 39
261 266 268 268 220 218 224 212 205 215 214 207 194 193 183 182 178 179 178 180 181 179 172 163 169 162 156 154 161 171 175 175 189 195 189 192 199 177 171 188 183 184 183 182 185 176 178 178 174 171 179 180 184 180 165 153 167 168 184 165 142 139 135 128 109 331 1 4 59 127 165 174 172 220 103 277 327 294 291 270 106 264 89 60 358
260 263 268 266 247 209 220 210 211 214 222 187 186 186 182 178 178 177 178 179 177 174 171 168 170 176 180 182 181 182 189 204 202 187 186 190 166 180 186 180 188 183 186 185 183 179 175 175 176 179 179 179 172 161 175 183 175 170 159 156 162 139 128 128 155 176 53 10 31 60 78 87 125 124 199 47 330 317 4 316 305 308 186 358 336
261 261 257 251 254 217 226 216 212 219 190 170 183 179 179 177 174 178 176 177 176 172 175 178 177 181 185 190 191 196 199 200 185 185 172 168 181 182 177 188 187 190 184 187 183 180 177 175 176 176 176 180 174 180 180 172 152 149 157 159 147 160 155 144 161 172 156 184 131 92 87 82 87 90 134 161 171 249 308 314 303 318 286 312 308
255 259 266 263 247 234 229 224 221 187 176 186 186 182 176 172 172 171 176 176 176 176 178 184 184 183 187 188 195 206 202 186 161 154 167 172 181 179 184 185 187 192 191 186 186 183 180 180 176 176 177 179 179 175 175 169 171 164 164 165 169 168 161 150 148 178 170 162 148 101 102 98 89 89 139 129 159 173 265 212 270 329 296 284 251
264 245 256 260 236 230 228 227 168 199 185 173 168 162 169 165 170 173 180 178 176 180 182 185 187 183 189 195 197 196 183 156 160 171 172 173 186 185 185 182 188 189 194 191 188 188 184 180 180 181 180 176 178 180 170 171 174 175 176 171 166 164 163 158 169 171 177 167 168 151 138 119 85 79 142 148 201 191 235 237 202 250 311 277 237
281 302 265 279 289 260 196 196 198 157 163 162 165 168 166 169 172 179 184 178 179 183 182 187 189 189 195 195 197 191 184 169 167 180 175 176 191 188 186 188 183 193 187 195 192 188 188 184 184 184 179 179 179 175 181 178 177 172 170 164 170 168 167 161 152 164 159 165 166 168 168 170 171 170 185 182 160 178 261 249 178 172 226 295 251
327 317 323 328 322 322 238 203 158 169 155 167 165 166 171 174 175 181 184 186 183 185 186 191 191 195 199 196 197 195 181 183 188 189 185 188 188 187 183 177 193 190 189 192 195 188 186 189 187 182 185 182 185 182 177 177 171 165 166 173 175 170 159 157 158 161 168 169 175 176 172 162 148 141 164 155 151 168 168 279 300 280 257 204 237
334 338 320 316 275 253 240 222 169 180 188 177 175 175 174 176 180 182 191 187 187 185 191 193 195 200 200 200 201 193 192 194 195 193 189 189 187 183 179 193 183 187 198 194 197 186 186 186 188 190 189 191 182 177 179 174 171 172 174 175 173 173 174 167 167 177 171 175 179 178 163 161 161 153 143 147 147 139 144 245 288 33 294 301 267
316 288 294 290 299 304 281 256 224 200 191 188 180 178 182 184 185 188 189 186 185 190 194 196 204 203 200 201 198 193 199 197 199 198 192 192 186 190 190 191 190 198 190 199 189 184 191 193 188 194 193 184 182 182 178 178 175 176 176 176 179 175 163 173 174 169 175 173 158 162 170 166 163 158 153 145 152 145 160 188 262 335 277 288 309
18 340 311 289 280 264 253 244 241 220 197 194 192 189 182 190 190 192 188 192 189 192 191 201 206 206 206 205 201 200 202 198 203 199 190 190 193 193 196 193 196 198 195 192 175 187 191 185 189 189 189 186 182 181 180 179 180 176 179 179 172 169 172 168 170 167 171 172 171 168 163 163 164 162 151 159 156 166 157 155 151 266 312 243 272
329 325 316 298 270 269 244 235 236 223 209 202 200 195 194 198 197 199 194 187 192 194 202 202 203 199 203 205 208 206 207 205 205 202 201 195 193 193 195 195 199 189 189 179 189 185 188 189 187 192 185 184 185 184 181 181 181 178 177 176 177 173 169 173 171 169 173 172 168 162 157 171 162 158 155 154 156 157 151 149 146 161 182 287 302
310 315 303 294 303 283 267 249 229 233 218 207 201 198 195 190 196 205 203 195 198 201 204 203 202 201 207 207 204 204 205 205 205 204 200 194 192 197 195 197 188 186 188 184 181 186 188 189 189 188 186 184 183 187 184 184 181 183 182 178 179 174 171 175 163 171 171 166 165 175 170 163 162 151 150 151 153 148 154 161 168 175 177 190 264
295 285 262 256 267 280 280 265 251 231 247 246 220 201 200 195 192 197 206 205 207 203 201 200 202 207 208 209 208 207 208 211 208 203 195 187 194 196 194 187 197 191 178 181 179 183 189 188 188 188 186 183 186 184 184 183 181 188 186 187 179 165 164 158 169 165 168 165 165 168 167 163 162 154 158 156 152 155 157 168 173 177 175 196 208
308 296 300 273 235 263 256 253 247 252 235 241 253 227 209 202 197 201 211 216 210 205 206 209 207 211 212 211 207 208 210 212 209 199 187 194 197 197 196 199 182 178 182 178 182 184 185 189 189 188 184 186 183 184 180 181 183 183 183 181 169 168 167 170 172 167 170 166 171 174 170 166 165 158 153 150 150 151 157 163 174 171 196 194 210
326 341 341 336 325 262 254 257 257 234 237 235 227 234 226 208 194 207 218 221 214 209 206 210 210 208 211 209 214 211 211 208 204 196 196 201 202 196 195 191 194 182 182 180 182 184 186 187 188 186 185 184 184 183 179 179 180 187 181 179 176 171 172 173 173 175 169 174 171 174 178 171 168 154 153 151 151 153 155 167 172 184 194 197 196
321 320 322 319 309 323 306 283 257 248 228 219 222 225 236 226 216 206 206 209 211 215 208 220 212 216 211 208 209 206 212 209 206 204 203 203 199 196 196 197 172 186 183 186 185 187 185 186 185 186 185 185 183 181 180 176 181 184 185 181 173 177 174 175 170 175 176 173 178 175 178 176 164 157 156 151 153 157 161 168 176 181 201 201 193
313 310 307 302 305 307 322 269 238 233 229 220 217 228 230 225 226 217 214 216 215 215 211 218 212 217 212 216 211 209 208 200 205 206 209 204 202 200 196 181 191 192 184 186 187 184 184 182 183 186 186 187 186 184 179 178 181 181 183 179 179 179 179 177 175 180 178 180 176 173 176 171 168 154 154 160 157 162 168 173 188 187 208 209 209
288 296 297 299 300 305 295 293 277 253 253 238 222 219 228 234 235 229 218 224 215 219 217 218 215 217 219 219 214 210 200 202 205 207 208 206 205 201 188 191 193 187 187 188 187 184 182 181 182 183 184 186 186 184 182 181 184 183 182 183 184 184 183 180 182 184 180 173 173 177 176 167 161 156 163 160 157 169 170 182 194 193 207 218 211
292 292 291 289 301 307 296 289 278 260 249 239 234 237 240 237 233 228 227 232 224 226 219 216 220 222 221 215 215 209 200 205 207 209 210 209 204 201 192 196 192 183 186 190 187 184 180 182 183 183 186 186 185 185 184 185 184 182 184 186 185 189 189 189 185 179 176 177 178 171 177 169 164 160 164 162 171 167 176 179 189 203 206 216 220
290 294 304 312 312 313 313 320 319 312 303 295 286 278 275 272 267 244 244 245 239 230 221 223 218 223 217 213 213 206 205 206 210 210 212 206 203 199 193 195 187 191 189 184 187 183 182 182 186 187 187 186 187 183 182 185 185 184 185 184 187 188 190 189 186 182 179 176 176 180 171 169 166 161 168 172 171 176 175 175 192 200 205 213 220
321 339 334 326 322 325 349 345 335 328 318 309 297 277 262 264 261 256 261 257 240 225 225 224 222 222 220 216 214 205 209 208 211 212 211 205 201 196 192 194 191 192 189 190 185 184 186 189 191 189 188 186 183 185 186 185 183 181 183 185 186 187 187 184 183 182 180 179 178 174 173 170 170 170 175 168 173 176 174 183 193 200 199 210 215
356 357 356 355 357 355 351 356 348 336 333 328 323 315 303 282 274 265 256 258 248 223 226 224 225 223 223 220 213 211 212 213 213 213 208 201 200 197 192 195 194 194 189 189 191 189 193 190 192 188 187 185 185 185 185 184 183 181 181 181 181 182 181 179 183 181 179 177 175 172 172 173 172 170 169 174 173 176 182 191 195 195 206 207 224
14 12 9 0 350 349 351 347 347 348 343 341 327 312 301 294 283 272 257 257 263 243 233 228 225 225 224 221 215 213 215 218 217 211 205 203 198 194 196 193 186 193 194 193 192 193 194 194 193 189 190 184 182 184 184 183 182 181 179 180 177 175 175 176 175 177 176 176 175 173 174 175 173 173 174 175 175 180 177 192 193 192 203 218 230
8 2 359 357 351 346 345 347 345 346 348 346 343 338 327 310 289 280 267 257 249 231 234 230 228 227 227 221 217 217 219 218 210 206 205 202 198 197 191 187 191 196 195 195 193 191 188 194 194 192 187 186 186 186 183 181 179 180 180 176 174 173 173 172 172 175 176 174 173 175 176 177 177 180 183 183 186 181 176 181 191 188 206 219 230
2 356 350 348 347 345 346 345 348 348 347 347 346 344 342 340 337 333 323 296 206 224 227 230 230 234 233 227 223 221 217 210 206 207 206 201 198 193 190 193 195 194 193 191 190 191 192 191 187 186 185 187 192 190 187 182 179 176 173 172 171 175 174 173 170 171 176 178 177 174 179 183 185 189 192 194 195 195 192 185 187 194 202 214 220
355 353 348 343 343 343 344 347 346 347 346 345 341 340 340 340 338 334 330 327 316 279 266 246 246 245 240 228 220 218 208 211 214 209 204 198 197 193 193 194 192 191 191 188 187 191 193 188 187 186 186 190 191 187 183 183 181 175 170 170 171 173 173 172 175 174 176 176 175 175 174 188 188 192 196 199 198 197 201 202 204 210 209 207 208
349 345 345 345 342 343 342 340 340 341 343 343 340 339 341 339 335 330 327 324 316 287 270 259 250 251 240 229 223 214 207 216 207 209 202 198 192 191 194 193 190 190 192 188 194 195 190 190 190 189 190 190 188 182 183 183 180 177 173 170 170 170 171 175 174 175 174 171 169 171 179 184 190 189 186 197 201 204 209 215 221 229 237 244 246
341 342 343 340 338 334 332 331 335 340 340 336 334 334 336 334 328 322 322 324 321 302 280 271 265 257 249 234 223 214 216 213 210 206 197 191 192 194 195 191 196 195 183 191 197 190 196 192 189 190 192 189 189 183 183 182 180 178 174 169 173 169 171 174 174 175 174 168 168 171 174 181 187 189 188 187 189 207 217 220 227 233 240 245 253
335 337 334 333 333 332 329 324 320 324 328 324 327 326 324 323 320 322 329 330 329 319 298 283 282 272 258 240 228 221 222 220 209 199 193 194 194 200 197 195 189 183 194 198 195 196 193 192 192 190 188 186 184 183 183 182 180 178 174 169 169 168 170 172 173 173 172 170 172 168 168 172 176 184 182 174 179 194 203 225 238 253 263 259 262
331 340 333 328 329 326 325 328 332 331 328 330 331 333 329 328 332 331 333 335 332 325 315 304 294 288 282 262 246 235 235 226 203 198 198 204 205 204 196 195 191 194 195 197 195 195 196 192 190 186 184 184 183 182 184 183 181 178 175 163 162 165 166 169 167 166 166 162 164 165 168 167 169 171 170 164 165 174 184 205 217 226 234 239 248
337 330 329 323 323 325 322 320 322 326 325 327 325 327 329 325 326 329 330 332 331 326 320 318 307 300 287 265 252 252 248 229 204 198 203 208 205 202 201 195 194 199 200 195 203 198 193 191 187 183 183 184 180 184 184 183 180 177 171 156 164 167 169 170 170 168 164 165 167 166 165 165 162 163 178 186 186 178 188 198 208 215 220 230 239
324 325 318 312 303 311 314 311 317 323 326 326 328 328 326 325 328 330 331 328 332 330 326 319 308 303 295 276 251 238 235 220 205 203 210 209 203 204 200 184 192 196 193 196 199 196 195 189 185 185 183 181 177 186 186 184 181 177 167 155 163 165 169 170 171 169 167 170 169 169 167 161 167 168 181 191 191 189 192 198 198 196 211 244 253
312 314 312 316 320 319 318 320 318 323 325 326 326 324 323 323 324 326 329 326 329 326 320 310 303 299 289 281 259 237 231 211 199 209 210 208 203 196 196 184 193 191 194 198 188 192 194 191 189 190 187 180 182 187 187 185 181 182 165 159 165 167 169 169 167 169 169 170 173 173 165 164 170 171 185 193 197 196 179 174 176 208 217 235 249
311 316 321 324 327 324 324 327 327 324 328 329 323 322 321 319 321 324 326 322 322 323 320 307 295 286 277 264 249 231 222 212 209 209 197 197 196 197 189 177 192 191 196 181 181 187 190 191 195 192 187 183 180 189 189 188 183 183 167 163 164 167 166 170 168 166 163 161 167 174 176 174 174 182 189 195 195 191 170 181 187 201 225 233 233
313 315 318 322 322 330 328 330 329 325 326 327 325 322 320 318 319 322 323 319 316 315 307 294 287 284 272 254 232 224 220 208 210 197 184 192 171 158 174 182 191 186 180 176 182 183 185 191 185 189 192 186 181 191 195 191 186 186 171 163 168 168 172 168 168 168 161 169 168 176 187 184 183 187 191 191 192 191 178 178 192 201 215 214 217
322 321 326 323 325 329 325 321 324 324 325 324 324 321 319 319 317 318 317 312 309 309 304 296 289 287 281 270 258 240 232 225 199 185 173 169 174 177 167 171 176 175 165 172 178 181 182 188 185 192 194 195 187 188 198 194 192 189 173 168 175 177 170 166 169 167 170 169 172 177 177 191 190 189 189 191 191 196 189 182 197 198 193 221 240
310 316 322 321 323 324 321 320 321 323 320 320 322 319 313 313 313 310 308 306 307 306 303 298 290 281 274 266 254 248 230 215 184 166 170 179 174 164 172 172 168 167 175 181 181 183 185 182 184 189 196 197 195 197 197 200 196 194 182 175 169 179 167 164 165 168 163 166 168 176 176 197 198 193 192 190 189 189 195 180 196 215 237 244 250
318 315 317 324 321 320 320 319 319 319 319 319 320 312 308 308 305 303 306 306 307 306 302 299 291 283 270 258 247 228 217 194 189 184 178 179 166 160 166 166 171 174 178 179 181 185 183 189 187 196 192 192 191 201 206 208 200 197 190 174 172 166 174 170 167 168 168 163 162 175 179 191 190 187 189 188 187 188 196 195 184 219 225 245 272
308 310 317 328 321 318 318 315 313 312 313 314 312 305 302 301 296 301 306 308 308 306 303 300 295 284 274 259 241 231 214 198 189 182 183 174 174 170 168 174 176 179 187 190 189 180 185 191 194 187 179 162 170 193 210 213 208 200 194 178 175 173 174 164 165 156 147 162 165 166 170 182 183 187 186 186 189 194 158 163 199 210 238 85 81
305 310 320 324 320 318 312 305 303 304 304 304 304 300 301 298 299 311 312 308 304 306 309 304 301 294 280 268 246 232 215 200 195 183 184 185 177 171 176 182 177 188 189 195 197 190 195 195 186 172 166 167 163 175 198 210 209 202 196 177 174 172 174 169 164 154 144 156 161 161 168 174 180 184 187 179 140 119 130 170 202 221 84 81 88
302 308 319 320 315 305 300 298 299 295 296 298 298 302 301 300 307 311 308 305 314 321 316 311 307 301 292 276 253 239 223 213 202 200 198 190 182 183 185 181 186 191 194 198 194 193 201 200 190 162 167 158 165 148 198 202 204 199 195 177 173 172 172 172 158 157 155 159 161 166 171 179 184 169 127 95 89 143 172 183 148 73 81 97 120
301 302 317 316 310 306 302 300 297 298 300 301 304 302 295 298 304 308 308 314 321 314 310 308 305 304 299 286 258 246 223 217 211 209 205 198 191 188 188 189 191 192 195 199 200 197 199 198 176 182 150 156 152 177 191 196 197 192 191 173 172 173 171 164 156 160 160 162 166 170 175 159 136 138 132 125 117 103 74 58 68 81 117 167 194
280 294 303 298 297 296 297 301 300 300 308 310 305 302 300 298 299 304 319 324 315 308 304 301 298 297 292 284 268 246 234 222 210 204 205 204 201 196 197 198 193 195 193 200 196 199 201 200 183 163 150 154 175 188 193 193 191 186 184 173 173 169 169 158 154 159 158 156 148 149 140 119 111 79 86 62 69 99 103 99 96 137 177 211 237
294 297 300 293 298 296 294 296 294 298 307 308 303 298 298 300 305 319 325 315 305 299 298 293 293 291 285 278 263 252 232 231 222 213 217 211 200 199 208 216 214 202 201 196 195 204 201 197 188 186 183 188 190 199 203 194 191 188 182 174 169 171 163 157 162 150 132 118 118 117 128 135 132 134 128 137 124 108 102 148 155 181 214 241 238
288 293 293 291 287 287 292 293 290 295 299 298 300 299 297 295 306 312 308 301 299 297 295 286 286 287 283 281 272 256 241 231 227 221 220 229 229 222 214 210 213 206 213 213 205 206 194 184 190 197 190 189 196 197 180 189 194 192 188 176 167 161 152 149 152 147 137 138 149 153 160 157 153 153 162 169 167 164 162 155 179 253 236 226 245
298 302 297 293 293 294 295 291 291 297 297 296 296 292 288 292 311 306 301 295 293 291 286 281 280 278 281 283 276 264 249 233 230 226 218 221 223 228 226 222 217 205 209 216 217 215 202 196 189 186 193 201 194 181 186 189 189 189 186 176 163 153 151 154 150 137 139 152 159 165 165 156 165 163 175 171 144 158 159 159 168 177 225 239 252